Kenai, AK

5:24 PM AKST on December 06, 2019 (GMT -0900)
Kenai Municipal

Weather History for PAEN - October, 2019

Change the Weather History Date:

Saturday, October 12, 2019

  Actual Average Record
Temperature  
Mean Temperature 38 °F -  
Max Temperature 48 °F 43 °F 54 °F (2016)
Min Temperature 28 °F 31 °F 12 °F (2001)
Degree Days  
Heating Degree Days 27    
Moisture  
Dew Point 25 °F    
Average Humidity 59    
Maximum Humidity 82    
Minimum Humidity 33    
Precipitation  
Precipitation 0.00 in - - ()
Sea Level Pressure  
Sea Level Pressure 29.99 in    
Wind  
Wind Speed 5 mph (NNW)    
Max Wind Speed 14 mph    
Max Gust Speed 22 mph    
Visibility 10 miles    
Events      
Averages and records for this station are not official NWS values.
T = Trace of Precipitation, MM = Missing Value Source: NWS Daily Summary

Daily Weather History Graph

Daily Weather History Graph

Search for Another Location

Airport or City:

Astronomy

Oct. 12, 2019 Rise Set
Actual Time 8:38 AM AKDT 7:03 PM AKDT
Civil Twilight 7:55 AM AKDT 7:46 PM AKDT
Nautical Twilight 7:06 AM AKDT 8:34 PM AKDT
Astronomical Twilight 6:16 AM AKDT 9:24 PM AKDT
Moon 7:31 PM AKDT (10/12) 6:48 AM AKDT (10/12)
Length of Visible Light 11h 50m
Length of Day
10h 25m
Waxing Gibbous, 99% of the Moon is Illuminated
Oct 12
Waxing Gibbous
Oct 13
Full
Oct 21
Last Quarter
Oct 27
New
Nov 4
First Quarter

Hourly Weather History & Observations

Time (AKDT) Temp. Windchill Dew Point Humidity Pressure Visibility Wind Dir Wind Speed Gust Speed Precip Events Conditions
12:53 AM 41.0 °F 38.0 °F 28.9 °F 62% 29.78 in 10.0 mi NW 4.6 mph - N/A   Overcast
1:53 AM 37.9 °F 34.4 °F 28.9 °F 70% 29.81 in 10.0 mi NNW 4.6 mph - N/A   Clear
2:53 AM 39.0 °F 34.0 °F 27.0 °F 62% 29.84 in 10.0 mi NW 6.9 mph - N/A   Clear
3:53 AM 37.0 °F 34.5 °F 27.0 °F 67% 29.86 in 10.0 mi WNW 3.5 mph - N/A   Clear
4:53 AM 35.1 °F 31.0 °F 27.0 °F 72% 29.88 in 10.0 mi NW 4.6 mph - N/A   Clear
5:53 AM 35.1 °F 31.0 °F 26.1 °F 70% 29.89 in 10.0 mi NW 4.6 mph - N/A   Clear
6:53 AM 33.1 °F - 25.0 °F 72% 29.91 in 10.0 mi Calm Calm - N/A   Clear
7:53 AM 30.9 °F - 24.1 °F 76% 29.94 in 10.0 mi Calm Calm - N/A   Clear
8:53 AM 33.1 °F - 26.1 °F 75% 29.96 in 10.0 mi Calm Calm - N/A   Clear
9:53 AM 37.9 °F 34.4 °F 27.0 °F 65% 29.99 in 10.0 mi NNW 4.6 mph - N/A   Clear
10:53 AM 43.0 °F 38.8 °F 28.0 °F 56% 30.01 in 10.0 mi North 6.9 mph - N/A   Clear
11:53 AM 46.0 °F 40.2 °F 23.0 °F 40% 30.03 in 10.0 mi North 12.7 mph - N/A   Clear
12:53 PM 46.9 °F - 24.1 °F 41% 30.04 in 10.0 mi NNW 13.8 mph - N/A   Clear
1:53 PM 48.0 °F - 21.9 °F 36% 30.06 in 10.0 mi North 13.8 mph 21.9 mph N/A   Clear
2:53 PM 48.0 °F - 21.0 °F 34% 30.05 in 10.0 mi NNE 13.8 mph - N/A   Clear
3:53 PM 48.9 °F - 21.0 °F 33% 30.06 in 10.0 mi North 10.4 mph - N/A   Clear
4:53 PM 48.0 °F - 19.9 °F 33% 30.06 in 10.0 mi NNE 6.9 mph - N/A   Clear
5:53 PM 46.0 °F 41.4 °F 21.0 °F 37% 30.07 in 10.0 mi North 9.2 mph - N/A   Clear
6:53 PM 41.0 °F 38.0 °F 23.0 °F 49% 30.08 in 10.0 mi North 4.6 mph - N/A   Clear
8:53 PM 32.0 °F 27.5 °F 26.1 °F 79% 30.09 in 10.0 mi NW 4.6 mph - N/A   Clear
9:53 PM 30.0 °F - 25.0 °F 82% 30.09 in 10.0 mi Calm Calm - N/A   Clear
10:53 PM 28.9 °F - 21.9 °F 75% 30.09 in 10.0 mi Calm Calm - N/A   Clear
11:53 PM 30.0 °F 26.5 °F 24.1 °F 79% 30.10 in 10.0 mi NNW 3.5 mph - N/A   Clear